DW8599 Weather Reports


Display with metric or nautical units.
time (UTC)temp
F
wind
direction
speed
MPH
gust
MPH
rain 1hr
in
rain 24hr
in
rain mn
in
humidity
%
barometer
mb
20260509224042 55 0.0 0.0 0.00 0.00 0.00 83 1006.0
20260509223542 54 0.0 0.0 0.00 0.00 0.00 84 1005.9
20260509223049 54 0.0 0.0 0.00 0.00 0.00 84 1005.9
20260509222540 54 0.0 0.0 0.00 0.00 0.00 84 1005.9
20260509222039 54 0.0 0.0 0.00 0.00 0.00 85 1005.9
20260509221550 54 0.0 0.0 0.00 0.00 0.00 83 1005.8
20260509221042 54 0.0 0.0 0.00 0.00 0.00 84 1005.8
20260509220541 54 0.0 0.0 0.00 0.00 0.00 84 1005.8
20260509220051 54 0.0 0.0 0.00 0.00 0.00 84 1005.8
20260509215543 54 0.0 0.0 0.00 0.00 0.00 84 1006.0
20260509215040 54 0.0 0.0 0.00 0.00 0.00 85 1006.1
20260509214552 54 0.0 0.0 0.00 0.00 0.00 84 1006.1
20260509214042 54 0.0 0.0 0.00 0.00 0.00 84 1006.1
20260509213540 54 0.0 0.0 0.00 0.00 0.00 83 1006.0
20260509213055 54 0.0 0.0 0.00 0.00 0.00 83 1006.0
20260509212540 54 0.0 0.0 0.00 0.00 0.00 83 1006.1
20260509212039 54 0.0 0.0 0.00 0.00 0.00 83 1006.1
20260509211546 54 0.0 0.0 0.00 0.00 0.00 83 1006.1
20260509211043 54 0.0 0.0 0.00 0.00 0.00 84 1006.2
20260509210544 54 0.0 0.0 0.00 0.00 0.00 84 1006.2
20260509210055 54 0.0 0.0 0.00 0.00 0.00 84 1006.4
20260509205539 54 0.0 0.0 0.00 0.00 0.00 83 1006.4
20260509205040 54 0.0 0.0 0.00 0.00 0.00 83 1006.4
20260509204555 54 0.0 0.0 0.00 0.00 0.00 83 1006.6
20260509204043 54 0.0 0.0 0.00 0.00 0.00 83 1006.6
20260509203542 54 0.0 0.0 0.00 0.00 0.00 83 1006.6
20260509203047 54 0.0 0.0 0.00 0.00 0.00 82 1006.6
20260509202539 54 0.0 0.0 0.00 0.00 0.00 82 1006.6
20260509202042 54 0.0 0.0 0.00 0.00 0.00 83 1006.7
20260509201548 54 0.0 0.0 0.00 0.00 0.00 84 1006.7
20260509201043 54 0.0 0.0 0.00 0.00 0.00 82 1006.7
20260509200544 55 0.0 0.0 0.00 0.00 0.00 81 1006.6
20260509200053 55 0.0 0.0 0.00 0.00 0.00 81 1006.4
20260509195539 55 0.0 0.0 0.00 0.00 0.00 82 1006.6
20260509195038 55 0.0 0.0 0.00 0.00 0.00 83 1006.7
20260509194547 55 0.0 0.0 0.00 0.00 0.00 82 1006.7
20260509194039 54 0.0 0.0 0.00 0.00 0.00 84 1006.9
20260509193539 54 0.0 0.0 0.00 0.00 0.00 85 1006.9
20260509193048 54 0.0 0.0 0.00 0.00 0.00 84 1007.0
20260509192541 54 0.0 0.0 0.00 0.00 0.00 84 1007.0
20260509192041 54 0.0 0.0 0.00 0.00 0.00 86 1007.1
20260509191549 54 0.0 0.0 0.00 0.00 0.00 86 1007.2
20260509191045 53 0.0 0.0 0.00 0.00 0.00 84 1007.2
20260509190541 53 0.0 0.0 0.00 0.00 0.00 87 1007.2
20260509190052 53 0.0 0.0 0.00 0.00 0.00 87 1007.3
20260509185541 53 0.0 0.0 0.00 0.00 0.00 88 1007.3
20260509185042 52 0.0 0.0 0.00 0.00 0.00 87 1007.3
20260509184552 52 0.0 0.0 0.00 0.00 0.00 89 1007.3
20260509184039 52 0.0 0.0 0.00 0.00 0.00 88 1007.2
20260509183545 52 0.0 0.0 0.00 0.00 0.00 88 1007.3
20260509183124 52 0.0 0.0 0.00 0.00 0.00 89 1007.3
20260509182541 52 0.0 0.0 0.00 0.00 0.00 89 1007.3
20260509182047 52 0.0 0.0 0.00 0.00 0.00 88 1007.4
20260509181606 52 0.0 0.0 0.00 0.00 0.00 88 1007.4
20260509181042 52 0.0 0.0 0.00 0.00 0.00 89 1007.2
20260509180542 52 0.0 0.0 0.00 0.00 0.00 89 1007.3
20260509180052 52 0.0 0.0 0.00 0.00 0.00 89 1007.4
20260509175541 51 0.0 0.0 0.00 0.00 0.00 89 1007.3
20260509175041 51 0.0 0.0 0.00 0.00 0.00 91 1007.4
20260509174549 51 0.0 0.0 0.00 0.00 0.00 91 1007.4
20260509174040 51 0.0 0.0 0.00 0.00 0.00 92 1007.3
20260509173541 51 0.0 0.0 0.00 0.00 0.00 91 1007.4
20260509173047 51 0.0 0.0 0.00 0.00 0.00 92 1007.4
20260509172542 51 0.0 0.0 0.00 0.00 0.00 91 1007.4
20260509172042 51 0.0 0.0 0.00 0.00 0.00 93 1007.5
20260509171544 51 0.0 0.0 0.00 0.00 0.00 92 1007.5
20260509171043 50 0.0 0.0 0.00 0.00 0.00 93 1007.6
20260509170545 50 0.0 0.0 0.00 0.00 0.00 92 1007.6
20260509170051 50 0.0 0.0 0.00 0.00 0.00 92 1007.6
20260509165541 49 0.0 0.0 0.00 0.00 0.00 92 1007.8
20260509165041 50 0.0 0.0 0.00 0.00 0.00 93 1007.8
20260509164546 49 0.0 0.0 0.00 0.00 0.00 93 1007.9
20260509164042 49 0.0 0.0 0.00 0.00 0.00 93 1008.1
20260509163542 49 0.0 0.0 0.00 0.00 0.00 93 1008.0
20260509163048 49 0.0 0.0 0.00 0.00 0.00 93 1008.0
20260509162543 49 0.0 0.0 0.00 0.00 0.00 93 1008.1
20260509162040 49 0.0 0.0 0.00 0.00 0.00 93 1008.1
20260509161549 50 0.0 0.0 0.00 0.00 0.00 93 1008.1
20260509161043 49 0.0 0.0 0.00 0.00 0.00 93 1008.2
20260509160542 49 0.0 0.0 0.00 0.00 0.00 94 1008.2
20260509160045 49 0.0 0.0 0.00 0.00 0.00 94 1008.2
20260509155542 49 0.0 0.0 0.00 0.00 0.00 93 1008.3
20260509155041 49 0.0 0.0 0.00 0.00 0.00 93 1008.3
20260509154553 49 0.0 0.0 0.00 0.00 0.00 93 1008.6
20260509154042 48 0.0 0.0 0.00 0.00 0.00 93 1008.7
20260509153541 48 0.0 0.0 0.00 0.00 0.00 93 1008.7
20260509153049 48 0.0 0.0 0.00 0.00 0.00 93 1008.8
20260509152543 48 0.0 0.0 0.00 0.00 0.00 93 1008.8
20260509152042 48 0.0 0.0 0.00 0.00 0.00 93 1008.9
20260509151550 48 0.0 0.0 0.00 0.00 0.00 93 1008.9
20260509151039 48 0.0 0.0 0.00 0.00 0.00 93 1009.0
20260509150539 48 0.0 0.0 0.00 0.00 0.00 93 1009.1
20260509150048 48 0.0 0.0 0.00 0.00 0.00 93 1009.0
20260509145539 48 0.0 0.0 0.00 0.00 0.00 93 1009.0
20260509145039 47 0.0 0.0 0.00 0.00 0.00 93 1009.0
20260509144549 47 0.0 0.0 0.00 0.00 0.00 93 1009.1
20260509144039 47 0.0 0.0 0.00 0.00 0.00 93 1009.1
20260509143542 47 0.0 0.0 0.00 0.00 0.00 94 1009.1
20260509143054 47 0.0 0.0 0.00 0.00 0.00 94 1009.0
20260509142538 47 0.0 0.0 0.00 0.00 0.00 93 1009.0
20260509142041 47 0.0 0.0 0.00 0.00 0.00 93 1009.0
20260509141600 46 0.0 0.0 0.00 0.00 0.00 93 1009.1
20260509141039 46 0.0 0.0 0.00 0.00 0.00 93 1009.0
20260509140541 46 0.0 0.0 0.00 0.00 0.00 93 1009.1
20260509140057 46 0.0 0.0 0.00 0.00 0.00 93 1009.1
20260509135542 46 0.0 0.0 0.00 0.00 0.00 93 1009.1
20260509135039 45 0.0 0.0 0.00 0.00 0.00 93 1009.2
20260509134552 45 0.0 0.0 0.00 0.00 0.00 93 1009.1
20260509134039 45 0.0 0.0 0.00 0.00 0.00 92 1009.2
20260509133539 45 0.0 0.0 0.00 0.00 0.00 92 1009.3
20260509133045 45 0.0 0.0 0.00 0.00 0.00 92 1009.3
20260509132545 45 0.0 0.0 0.00 0.00 0.00 92 1009.3
20260509132043 45 0.0 0.0 0.00 0.00 0.00 92 1009.3
20260509131546 45 0.0 0.0 0.00 0.00 0.00 92 1009.3
20260509131041 45 0.0 0.0 0.00 0.00 0.00 92 1009.3
20260509130540 45 0.0 0.0 0.00 0.00 0.00 92 1009.3
20260509130051 44 0.0 0.0 0.00 0.00 0.00 92 1009.3
20260509125539 44 0.0 0.0 0.00 0.00 0.00 92 1009.4
20260509125040 44 0.0 0.0 0.00 0.00 0.00 91 1009.3
20260509124550 44 0.0 0.0 0.00 0.00 0.00 91 1009.3
20260509124039 44 0.0 0.0 0.00 0.00 0.00 91 1009.3
20260509123544 43 0.0 0.0 0.00 0.00 0.00 91 1009.3
20260509123052 43 0.0 0.0 0.00 0.00 0.00 90 1009.4
20260509122538 43 0.0 0.0 0.00 0.00 0.00 90 1009.5
20260509122042 43 0.0 0.0 0.00 0.00 0.00 90 1009.6
20260509121546 43 0.0 0.0 0.00 0.00 0.00 89 1009.6
20260509121039 42 0.0 0.0 0.00 0.00 0.00 89 1009.7
20260509120539 42 0.0 0.0 0.00 0.00 0.00 88 1009.7
20260509120054 42 0.0 0.0 0.00 0.00 0.00 87 1009.7
20260509115541 42 0.0 0.0 0.00 0.00 0.00 86 1009.7
20260509115044 42 0.0 0.0 0.00 0.00 0.00 85 1009.8
20260509114549 42 0.0 0.0 0.00 0.00 0.00 84 1009.7
20260509114042 42 0.0 0.0 0.00 0.00 0.00 83 1009.7
20260509113543 42 0.0 0.0 0.00 0.00 0.00 82 1009.6
20260509113050 42 0.0 0.0 0.00 0.00 0.00 83 1009.7
20260509112538 42 0.0 0.0 0.00 0.00 0.00 82 1009.7
20260509112039 42 0.0 0.0 0.00 0.00 0.00 81 1009.7
20260509111552 42 0.0 0.0 0.00 0.00 0.00 80 1009.7
20260509111039 42 0.0 0.0 0.00 0.00 0.00 78 1009.6
20260509110540 42 0.0 0.0 0.00 0.00 0.00 79 1009.6
20260509110050 42 0.0 0.0 0.00 0.00 0.00 79 1009.5
20260509105539 43 0.0 0.0 0.00 0.00 0.00 78 1009.6
20260509105039 43 0.0 0.0 0.00 0.00 0.00 79 1009.6
20260509104551 43 0.0 0.0 0.00 0.00 0.00 77 1009.6
20260509104038 43 0.0 0.0 0.00 0.00 0.00 76 1009.5
20260509103541 42 0.0 0.0 0.00 0.00 0.00 76 1009.6
20260509103052 42 0.0 0.0 0.00 0.00 0.00 75 1009.4
20260509102539 42 0.0 0.0 0.00 0.00 0.00 74 1009.5
20260509102042 42 0.0 0.0 0.00 0.00 0.00 73 1009.2
20260509101555 42 0.0 0.0 0.00 0.00 0.00 72 1009.2
20260509101043 42 0.0 0.0 0.00 0.00 0.00 71 1009.4
20260509100543 42 0.0 0.0 0.00 0.00 0.00 70 1009.3
20260509100051 43 0.0 0.0 0.00 0.00 0.00 69 1009.4
20260509095545 43 0.0 0.0 0.00 0.00 0.00 67 1009.3
20260509095040 43 0.0 0.0 0.00 0.00 0.00 67 1009.3
20260509094549 43 0.0 0.0 0.00 0.00 0.00 66 1009.1
20260509094044 43 0.0 0.0 0.00 0.00 0.00 65 1009.2
20260509093543 43 0.0 0.0 0.00 0.00 0.00 65 1009.3
20260509093054 43 0.0 0.0 0.00 0.00 0.00 64 1009.4
20260509092543 43 0.0 0.0 0.00 0.00 0.00 63 1009.3
20260509092043 43 0.0 0.0 0.00 0.00 0.00 63 1009.4
20260509091548 43 0.0 0.0 0.00 0.00 0.00 62 1009.5
20260509091040 43 0.0 0.0 0.00 0.00 0.00 61 1009.6
20260509090544 44 0.0 0.0 0.00 0.00 0.00 61 1009.7
20260509090050 44 0.0 0.0 0.00 0.00 0.00 61 1009.7
20260509085543 44 0.0 0.0 0.00 0.00 0.00 60 1009.8
20260509085041 44 0.0 0.0 0.00 0.00 0.00 60 1009.7
20260509084554 44 0.0 0.0 0.00 0.00 0.00 60 1009.8
20260509084040 44 0.0 0.0 0.00 0.00 0.00 59 1009.8
20260509083544 44 0.0 0.0 0.00 0.00 0.00 60 1009.8
20260509083052 44 0.0 0.0 0.00 0.00 0.00 60 1009.9
20260509082543 44 0.0 0.0 0.00 0.00 0.00 60 1009.9
20260509082044 44 0.0 0.0 0.00 0.00 0.00 60 1010.0
20260509081552 44 0.0 0.0 0.00 0.00 0.00 61 1009.9
20260509081044 44 0.0 0.0 0.00 0.00 0.00 62 1010.0
20260509080543 43 0.0 0.0 0.00 0.00 0.00 61 1010.0
20260509080053 43 0.0 0.0 0.00 0.00 0.00 62 1010.0
20260509075543 43 0.0 0.0 0.00 0.00 0.00 61 1009.9
20260509075045 43 0.0 0.0 0.00 0.00 0.00 63 1010.0
20260509074549 43 0.0 0.0 0.00 0.00 0.00 63 1010.0
20260509074044 43 0.0 0.0 0.00 0.00 0.00 62 1010.0
20260509073544 43 0.0 0.0 0.00 0.00 0.00 63 1010.0
20260509073048 42 0.0 0.0 0.00 0.00 0.00 62 1010.0
20260509072546 42 0.0 0.0 0.00 0.00 0.00 63 1010.0
20260509072042 42 0.0 0.0 0.00 0.00 0.00 63 1010.0
20260509071553 42 0.0 0.0 0.00 0.00 0.00 62 1010.0
20260509071043 42 0.0 0.0 0.00 0.00 0.00 62 1010.1
20260509070544 42 0.0 0.0 0.00 0.00 0.00 63 1010.0
20260509070049 42 0.0 0.0 0.00 0.00 0.00 63 1010.0
20260509065543 42 0.0 0.0 0.00 0.00 0.00 64 1010.0
20260509065043 42 0.0 0.0 0.00 0.00 0.00 64 1010.1
20260509064616 42 0.0 0.0 0.00 0.00 0.00 64 1010.1
20260509064043 42 0.0 0.0 0.00 0.00 0.00 64 1010.1
20260509063543 42 0.0 0.0 0.00 0.00 0.00 66 1010.2
20260509063056 42 0.0 0.0 0.00 0.00 0.00 65 1010.3
20260509062543 42 0.0 0.0 0.00 0.00 0.00 64 1010.4
20260509062043 42 0.0 0.0 0.00 0.00 0.00 64 1010.4
20260509061553 42 0.0 0.0 0.00 0.00 0.00 64 1010.4
20260509061043 42 0.0 0.0 0.00 0.00 0.00 65 1010.6
20260509060543 42 0.0 0.0 0.00 0.00 0.00 63 1010.7
20260509060054 42 0.0 0.0 0.00 0.00 0.00 64 1010.7
20260509055543 42 0.0 0.0 0.00 0.00 0.00 63 1010.7
20260509055043 42 0.0 0.0 0.00 0.00 0.00 64 1010.8
20260509054552 43 0.0 0.0 0.00 0.00 0.00 64 1010.8
20260509054044 43 0.0 0.0 0.00 0.00 0.00 63 1010.9
20260509053543 43 0.0 0.0 0.00 0.00 0.00 64 1011.0
20260509053058 43 0.0 0.0 0.00 0.00 0.00 65 1010.8
20260509052543 43 0.0 0.0 0.00 0.00 0.00 64 1010.9
20260509052047 43 0.0 0.0 0.00 0.00 0.00 64 1011.1
20260509051548 43 0.0 0.0 0.00 0.00 0.00 63 1011.0
20260509051043 43 0.0 0.0 0.00 0.00 0.00 63 1011.1
20260509050544 43 0.0 0.0 0.00 0.00 0.00 63 1011.1
20260509050056 43 0.0 0.0 0.00 0.00 0.00 62 1011.2
20260509045543 43 0.0 0.0 0.00 0.00 0.00 62 1011.2
20260509045043 44 0.0 0.0 0.00 0.00 0.00 63 1011.2
20260509044554 44 0.0 0.0 0.00 0.00 0.00 64 1011.3
20260509044044 43 0.0 0.0 0.00 0.00 0.00 62 1011.3
20260509043543 43 0.0 0.0 0.00 0.00 0.00 62 1011.3
20260509043048 43 0.0 0.0 0.00 0.00 0.00 63 1011.3
20260509042544 43 0.0 0.0 0.00 0.00 0.00 63 1011.3
20260509042043 43 0.0 0.0 0.00 0.00 0.00 64 1011.2
20260509041554 44 0.0 0.0 0.00 0.00 0.00 63 1011.3
20260509041043 43 0.0 0.0 0.00 0.00 0.00 62 1011.3
20260509040546 43 0.0 0.0 0.00 0.00 0.00 64 1011.2
20260509040053 43 0.0 0.0 0.00 0.00 0.00 63 1011.2
20260509035544 43 0.0 0.0 0.00 0.00 0.00 63 1011.2
20260509035044 43 0.0 0.0 0.00 0.00 0.00 65 1011.2
20260509034552 43 0.0 0.0 0.00 0.00 0.00 63 1011.2
20260509034044 43 0.0 0.0 0.00 0.00 0.00 63 1011.0
20260509033544 43 0.0 0.0 0.00 0.00 0.00 63 1011.1
20260509033056 43 0.0 0.0 0.00 0.00 0.00 63 1011.0
20260509032543 43 0.0 0.0 0.00 0.00 0.00 63 1011.2
20260509032042 43 0.0 0.0 0.00 0.00 0.00 63 1011.2
20260509031554 43 0.0 0.0 0.00 0.00 0.00 64 1011.2
20260509031044 43 0.0 0.0 0.00 0.00 0.00 64 1011.3
20260509030544 43 0.0 0.0 0.00 0.00 0.00 65 1011.3
20260509030051 43 0.0 0.0 0.00 0.00 0.00 65 1011.4
20260509025543 43 0.0 0.0 0.00 0.00 0.00 65 1011.4
20260509025045 43 0.0 0.0 0.00 0.00 0.00 65 1011.4
20260509024553 43 0.0 0.0 0.00 0.00 0.00 65 1011.4
20260509024043 43 0.0 0.0 0.00 0.00 0.00 65 1011.4
20260509023543 43 0.0 0.0 0.00 0.00 0.00 65 1011.5
20260509023101 43 0.0 0.0 0.00 0.00 0.00 65 1011.6
20260509022546 43 0.0 0.0 0.00 0.00 0.00 65 1011.6
20260509022043 43 0.0 0.0 0.00 0.00 0.00 66 1011.6
20260509021546 43 0.0 0.0 0.00 0.00 0.00 66 1011.5
20260509021045 43 0.0 0.0 0.00 0.00 0.00 67 1011.5
20260509020542 43 0.0 0.0 0.00 0.00 0.00 65 1011.5
20260509020046 43 0.0 0.0 0.00 0.00 0.00 65 1011.6
20260509015543 43 0.0 0.0 0.00 0.00 0.00 65 1011.5
20260509015044 43 0.0 0.0 0.00 0.00 0.00 65 1011.5
20260509014550 43 0.0 0.0 0.00 0.00 0.00 65 1011.4
20260509014043 43 0.0 0.0 0.00 0.00 0.00 65 1011.3
20260509013546 43 0.0 0.0 0.00 0.00 0.00 67 1011.3
20260509013054 42 0.0 0.0 0.00 0.00 0.00 68 1011.2
20260509012543 42 0.0 0.0 0.00 0.00 0.00 72 1011.1
20260509012043 42 0.0 0.0 0.00 0.00 0.00 72 1011.0
20260509011548 42 0.0 0.0 0.00 0.00 0.00 71 1010.9
20260509011045 42 0.0 0.0 0.00 0.00 0.00 72 1010.8
20260509010547 42 0.0 0.0 0.00 0.00 0.00 72 1010.8
20260509010045 42 0.0 0.0 0.00 0.00 0.00 73 1010.9
20260509005544 42 0.0 0.0 0.00 0.00 0.00 74 1010.8
20260509005044 42 0.0 0.0 0.00 0.00 0.00 74 1010.7
20260509004554 42 0.0 0.0 0.00 0.00 0.00 72 1010.7
20260509004045 42 0.0 0.0 0.00 0.00 0.00 72 1010.6
20260509003544 43 0.0 0.0 0.00 0.00 0.00 73 1010.4
20260509003050 43 0.0 0.0 0.00 0.00 0.00 73 1010.4
20260509002543 43 0.0 0.0 0.00 0.00 0.00 73 1010.3
20260509002043 43 0.0 0.0 0.00 0.00 0.00 72 1010.3
20260509001554 44 0.0 0.0 0.00 0.00 0.00 70 1010.4
20260509001043 44 0.0 0.0 0.00 0.00 0.00 69 1010.3
20260509000546 44 0.0 0.0 0.00 0.00 0.00 69 1010.3
20260509000049 45 0.0 0.0 0.00 0.00 0.00 68 1010.3
20260508235543 45 0.0 0.0 0.00 0.00 0.00 67 1010.3
20260508235047 46 0.0 0.0 0.00 0.00 0.00 65 1010.2
20260508234551 47 0.0 0.0 0.00 0.00 0.00 61 1010.2
20260508234047 47 0.0 0.0 0.00 0.00 0.00 60 1010.1
20260508233543 47 0.0 0.0 0.00 0.00 0.00 58 1010.1
20260508233052 48 0.0 0.0 0.00 0.00 0.00 60 1010.0
20260508232542 48 0.0 0.0 0.00 0.00 0.00 57 1009.9
20260508232043 49 0.0 0.0 0.00 0.00 0.00 53 1009.9
20260508231556 49 0.0 0.0 0.00 0.00 0.00 53 1009.9
20260508231044 49 0.0 0.0 0.00 0.00 0.00 51 1010.0
20260508230543 50 0.0 0.0 0.00 0.00 0.00 50 1010.0
20260508230057 50 0.0 0.0 0.00 0.00 0.00 49 1010.0
20260508225543 51 0.0 0.0 0.00 0.00 0.00 51 1010.0
20260508225044 51 0.0 0.0 0.00 0.00 0.00 53 1009.9
20260508224612 50 0.0 0.0 0.00 0.00 0.00 52 1010.0